When you browse on this site, cookies collect data to enhance your experience and personalize the content and advertising you see.
Visit our Privacy Policy to learn more. By continuing to use the site, you agree to this use of cookies and data.
  • în România
  • Lista ţărilor
  • Pe 7 zile
  • Temperatura apei
  • Meteo pe hartă
  • Widget-uri
  • user-avatar
    Intrare

    Meteo pe oră la Sakkhar

    Astăzi, 28 Mai, Joi

    Timp Temperatura Precipitaţii Vânt Presiune Umiditate
    00:00 +41°C° 0 mm 4 m/s 742 mmHg 5%
    01:00 +41°C° 0 mm 4 m/s 741 mmHg 6%
    02:00 +40°C° 0 mm 5 m/s 741 mmHg 7%
    03:00 +40°C° 0 mm 5 m/s 741 mmHg 8%
    04:00 +39°C° 0 mm 5 m/s 741 mmHg 9%
    05:00 +37°C° 0 mm 4 m/s 741 mmHg 11%
    06:00 +40°C° 0 mm 4 m/s 741 mmHg 10%
    07:00 +41°C° 0 mm 5 m/s 742 mmHg 9%
    08:00 +43°C° 0 mm 5 m/s 742 mmHg 8%
    09:00 +46°C° 0 mm 5 m/s 742 mmHg 7%
    10:00 +49°C° 0 mm 5 m/s 741 mmHg 6%
    11:00 +52°C° 0 mm 5 m/s 741 mmHg 4%
    12:00 +52°C° 0 mm 5 m/s 741 mmHg 4%
    13:00 +52°C° 0 mm 6 m/s 740 mmHg 4%
    14:00 +53°C° 0 mm 6 m/s 739 mmHg 4%
    15:00 +53°C° 0 mm 6 m/s 739 mmHg 4%
    16:00 +53°C° 0 mm 6 m/s 738 mmHg 4%
    17:00 +53°C° 0 mm 5 m/s 737 mmHg 4%
    18:00 +50°C° 0 mm 5 m/s 738 mmHg 5%
    19:00 +48°C° 0 mm 5 m/s 738 mmHg 6%
    20:00 +46°C° 0 mm 5 m/s 739 mmHg 6%
    21:00 +43°C° 0 mm 5 m/s 739 mmHg 10%
    22:00 +42°C° 0 mm 5 m/s 739 mmHg 14%
    23:00 +40°C° 0 mm 6 m/s 739 mmHg 18%

    Mâine, 29 Mai, Vineri

    Timp Temperatura Precipitaţii Vânt Presiune Umiditate
    00:00 +40°C° 0 mm 5 m/s 739 mmHg 17%
    01:00 +38°C° 0 mm 4 m/s 739 mmHg 17%
    02:00 +37°C° 0 mm 3 m/s 739 mmHg 16%
    03:00 +36°C° 0 mm 3 m/s 739 mmHg 15%
    04:00 +36°C° 0 mm 3 m/s 739 mmHg 15%
    05:00 +35°C° 0 mm 2 m/s 739 mmHg 14%
    06:00 +37°C° 0 mm 3 m/s 739 mmHg 15%
    07:00 +38°C° 0 mm 4 m/s 740 mmHg 15%
    08:00 +41°C° 0 mm 5 m/s 741 mmHg 15%
    09:00 +43°C° 0 mm 5 m/s 741 mmHg 14%
    10:00 +46°C° 0 mm 5 m/s 741 mmHg 12%
    11:00 +47°C° 0 mm 5 m/s 741 mmHg 11%
    12:00 +48°C° 0 mm 5 m/s 740 mmHg 9%
    13:00 +50°C° 0 mm 4 m/s 740 mmHg 8%
    14:00 +51°C° 0 mm 4 m/s 739 mmHg 7%
    15:00 +51°C° 0 mm 4 m/s 739 mmHg 7%
    16:00 +51°C° 0 mm 3 m/s 739 mmHg 6%
    17:00 +51°C° 0 mm 3 m/s 738 mmHg 6%
    18:00 +48°C° 0 mm 3 m/s 739 mmHg 7%
    19:00 +46°C° 0 mm 3 m/s 739 mmHg 8%
    20:00 +44°C° 0 mm 3 m/s 739 mmHg 9%
    21:00 +43°C° 0 mm 4 m/s 740 mmHg 12%
    22:00 +42°C° 0 mm 4 m/s 740 mmHg 15%
    23:00 +41°C° 0 mm 4 m/s 741 mmHg 18%

    Poimâine, 30 Mai, Sâmbătă

    Timp Temperatura Precipitaţii Vânt Presiune Umiditate
    00:00 +38°C° 0 mm 4 m/s 741 mmHg 21%
    01:00 +37°C° 0 mm 3 m/s 741 mmHg 23%
    02:00 +36°C° 0 mm 2 m/s 741 mmHg 26%
    03:00 +36°C° 0 mm 3 m/s 741 mmHg 26%
    04:00 +36°C° 0 mm 3 m/s 742 mmHg 26%
    05:00 +36°C° 0 mm 4 m/s 742 mmHg 26%
    06:00 +37°C° 0 mm 5 m/s 743 mmHg 26%
    07:00 +39°C° 0 mm 6 m/s 743 mmHg 25%
    08:00 +40°C° 0 mm 6 m/s 744 mmHg 24%
    09:00 +41°C° 0 mm 5 m/s 744 mmHg 22%
    10:00 +43°C° 0 mm 4 m/s 744 mmHg 20%
    11:00 +45°C° 0 mm 3 m/s 744 mmHg 19%
    12:00 +47°C° 0 mm 5 m/s 744 mmHg 19%
    13:00 +48°C° 0 mm 4 m/s 743 mmHg 17%
    14:00 +49°C° 0 mm 4 m/s 743 mmHg 16%
    15:00 +49°C° 0 mm 4 m/s 742 mmHg 15%
    16:00 +48°C° 0 mm 3 m/s 742 mmHg 14%
    17:00 +50°C° 0 mm 3 m/s 741 mmHg 12%
    18:00 +45°C° 0.4 mm 3 m/s 742 mmHg 19%
    19:00 +41°C° 0.4 mm 4 m/s 743 mmHg 25%
    20:00 +36°C° 0.4 mm 5 m/s 744 mmHg 32%
    21:00 +37°C° 0.1 mm 4 m/s 745 mmHg 31%
    22:00 +37°C° 0.1 mm 4 m/s 745 mmHg 29%
    23:00 +38°C° 0.1 mm 3 m/s 746 mmHg 28%

    31 Mai, Duminică

    Timp Temperatura Precipitaţii Vânt Presiune Umiditate
    00:00 +37°C° 0 mm 3 m/s 746 mmHg 31%
    01:00 +36°C° 0 mm 3 m/s 746 mmHg 34%
    02:00 +36°C° 0 mm 2 m/s 746 mmHg 37%
    03:00 +35°C° 0 mm 2 m/s 746 mmHg 40%
    04:00 +35°C° 0 mm 2 m/s 746 mmHg 43%
    05:00 +34°C° 0 mm 2 m/s 747 mmHg 46%
    06:00 +35°C° 0 mm 3 m/s 747 mmHg 44%
    07:00 +35°C° 0 mm 3 m/s 747 mmHg 43%
    08:00 +36°C° 0 mm 4 m/s 747 mmHg 41%
    09:00 +38°C° 0 mm 4 m/s 747 mmHg 36%
    10:00 +40°C° 0 mm 4 m/s 747 mmHg 31%
    11:00 +42°C° 0 mm 4 m/s 747 mmHg 26%
    12:00 +43°C° 0 mm 3 m/s 747 mmHg 24%
    13:00 +44°C° 0 mm 3 m/s 746 mmHg 22%
    14:00 +45°C° 0 mm 3 m/s 746 mmHg 19%
    15:00 +45°C° 0 mm 3 m/s 745 mmHg 18%
    16:00 +47°C° 0 mm 4 m/s 745 mmHg 17%
    17:00 +47°C° 0 mm 4 m/s 744 mmHg 17%
    18:00 +45°C° 0.3 mm 6 m/s 745 mmHg 21%
    19:00 +41°C° 0.3 mm 8 m/s 745 mmHg 24%
    20:00 +39°C° 0.3 mm 10 m/s 746 mmHg 28%
    21:00 +38°C° 0.3 mm 9 m/s 747 mmHg 32%
    22:00 +37°C° 0.3 mm 9 m/s 747 mmHg 35%
    23:00 +35°C° 0.3 mm 8 m/s 748 mmHg 38%

    1 Iunie, Luni

    Timp Temperatura Precipitaţii Vânt Presiune Umiditate
    00:00 +35°C° 0 mm 7 m/s 748 mmHg 40%
    01:00 +34°C° 0 mm 5 m/s 747 mmHg 42%
    02:00 +34°C° 0 mm 4 m/s 747 mmHg 44%
    03:00 +34°C° 0 mm 3 m/s 747 mmHg 45%
    04:00 +34°C° 0 mm 2 m/s 747 mmHg 45%
    05:00 +32°C° 0 mm 1 m/s 747 mmHg 46%
    06:00 +33°C° 0 mm 1 m/s 748 mmHg 45%
    07:00 +35°C° 0 mm 2 m/s 748 mmHg 44%
    08:00 +36°C° 0 mm 2 m/s 748 mmHg 42%
    09:00 +37°C° 0 mm 2 m/s 748 mmHg 38%
    10:00 +39°C° 0 mm 2 m/s 748 mmHg 34%
    11:00 +42°C° 0 mm 3 m/s 748 mmHg 29%
    12:00 +43°C° 0 mm 3 m/s 748 mmHg 27%
    13:00 +44°C° 0 mm 3 m/s 747 mmHg 24%
    14:00 +45°C° 0 mm 3 m/s 746 mmHg 21%
    15:00 +46°C° 0 mm 3 m/s 746 mmHg 20%
    16:00 +46°C° 0 mm 3 m/s 745 mmHg 19%
    17:00 +47°C° 0 mm 3 m/s 745 mmHg 18%
    18:00 +47°C° 0 mm 4 m/s 745 mmHg 20%
    19:00 +45°C° 0 mm 4 m/s 745 mmHg 22%
    20:00 +45°C° 0 mm 5 m/s 745 mmHg 24%
    21:00 +43°C° 0 mm 5 m/s 745 mmHg 25%
    22:00 +42°C° 0 mm 4 m/s 746 mmHg 26%
    23:00 +42°C° 0 mm 4 m/s 746 mmHg 27%

    2 Iunie, Marţi

    Timp Temperatura Precipitaţii Vânt Presiune Umiditate
    00:00 +40°C° 0 mm 5 m/s 746 mmHg 34%
    01:00 +39°C° 0 mm 5 m/s 745 mmHg 40%
    02:00 +38°C° 0 mm 6 m/s 745 mmHg 47%
    03:00 +36°C° 0 mm 6 m/s 745 mmHg 49%
    04:00 +36°C° 0 mm 6 m/s 745 mmHg 52%
    05:00 +35°C° 0 mm 6 m/s 745 mmHg 54%
    06:00 +36°C° 0 mm 6 m/s 745 mmHg 53%
    07:00 +36°C° 0 mm 6 m/s 746 mmHg 52%
    08:00 +38°C° 0 mm 7 m/s 746 mmHg 50%
    09:00 +40°C° 0 mm 6 m/s 746 mmHg 42%
    10:00 +44°C° 0 mm 6 m/s 746 mmHg 34%
    11:00 +46°C° 0 mm 6 m/s 746 mmHg 27%
    12:00 +47°C° 0 mm 6 m/s 745 mmHg 22%
    13:00 +49°C° 0 mm 5 m/s 744 mmHg 18%
    14:00 +50°C° 0 mm 5 m/s 744 mmHg 14%
    15:00 +51°C° 0 mm 6 m/s 743 mmHg 14%
    16:00 +51°C° 0 mm 6 m/s 743 mmHg 13%
    17:00 +51°C° 0 mm 6 m/s 742 mmHg 13%
    18:00 +50°C° 0 mm 8 m/s 742 mmHg 18%
    19:00 +48°C° 0 mm 10 m/s 742 mmHg 23%
    20:00 +46°C° 0 mm 11 m/s 742 mmHg 28%
    21:00 +43°C° 0 mm 11 m/s 743 mmHg 34%
    22:00 +41°C° 0 mm 11 m/s 743 mmHg 40%
    23:00 +38°C° 0 mm 10 m/s 743 mmHg 47%
    Arată mai mult